Regional Weather Roundup
Issued by NWS

Home | Current Version | Previous Version | Graphics & Text | Print | Product List | Glossary On
Versions: 1 2 3 4 5 6 7 8 9 10 11 12 13 14 15 16 17 18 19 20 21 22 23 24 25 26 27 28 29 30 31 32 33 34 35 36 37 38 39 40 41 42 43 44 45 46 47 48 49 50
000
ASUS43 KOAX 290110
RWRNE

WEATHER ROUNDUP FOR NEBRASKA
NATIONAL WEATHER SERVICE OMAHA NE
700 PM CST WED JAN 28 2015

NOTES: SATELLITE DATA IS BEING USED TO AUGMENT CLOUD COVER ABOVE
       12000 FEET.
       "FAIR" INDICATES FEW OR NO CLOUDS BELOW 12,000 FEET WITH NO
       SIGNIFICANT WEATHER AND/OR OBSTRUCTIONS TO VISIBILITY.

  * THESE STATIONS DO NOT REPORT WEATHER SUCH AS RAIN...SNOW OR FOG.

NEZ001>004-019>022-054>056-290200-
NEBRASKA PANHANDLE

CITY           SKY/WX    TMP DP  RH WIND       PRES   REMARKS
SCOTTSBLUFF    PTCLDY    41  35  79 W8        30.14R
ALLIANCE       PTCLDY    42  32  67 NW10      30.10R
CHADRON        CLOUDY    49  30  48 NW22G29   30.10R
KIMBALL        CLEAR     40  35  84 NW14      30.14R WCI  32
SIDNEY         PTCLDY    42  34  73 NW9       30.12R
$$

NEZ057>060-069>072-079>082-290200-
SOUTHWEST NEBRASKA

CITY           SKY/WX    TMP DP  RH WIND       PRES   REMARKS
NORTH PLATTE   MOCLDY    52  32  46 NW21G39   30.00R
IMPERIAL       MOCLDY    50  35  56 NW21G26   30.05R
LEXINGTON      PTCLDY    56  31  38 NW24G35   29.93R
MCCOOK         CLEAR     54  28  36 NW18      29.99R
OGALLALA       MOCLDY    49  34  56 NW21G32   30.07R
$$

NEZ005>010-023>029-035>040-094-290200-
NORTH CENTRAL NEBRASKA

CITY           SKY/WX    TMP DP  RH WIND       PRES   REMARKS
VALENTINE      CLOUDY    49  30  48 NW21G30   29.99R
AINSWORTH      CLOUDY    52  30  43 NW26G38   29.96R
BROKEN BOW     CLOUDY    56  31  38 NW22G32   29.91R
O`NEILL        MOCLDY    52  34  50 NW17G23   29.88R
ORD            MOCLDY    54  29  38 NW25G33   29.87R
THEDFORD       CLOUDY    53  32  45 NW15      29.98R
$$

NEZ041-046>049-061>064-073>077-083>087-290200-
SOUTH CENTRAL NEBRASKA

CITY           SKY/WX    TMP DP  RH WIND       PRES   REMARKS
GRAND ISLAND   MOCLDY    57  30  35 NW23G31   29.85R
AURORA         CLEAR     55  31  40 NW22      29.82R
HASTINGS       CLEAR     55  28  35 NW21G26   29.85R
HEBRON         CLEAR     57  30  36 NW10      29.78R
HOLDREGE       CLEAR     54  26  34 NW15      29.91R
KEARNEY *      PTCLDY    55  28  35 NW17      29.89R
YORK           CLEAR     54  34  47 NW16      29.80R
$$

NEZ011>018-030>034-042>045-290200-
NORTHEAST NEBRASKA

CITY           SKY/WX    TMP DP  RH WIND       PRES   REMARKS
NORFOLK        PTCLDY    52  36  54 NW16G28   29.78R
ALBION         CLEAR     52  32  47 NW15      29.82R
BLAIR          CLEAR     48  34  57 NW6       29.71R
COLUMBUS *     CLEAR     50  34  53 NW13      29.80R
FREMONT        CLEAR     47  36  64 NW10      29.75R
TEKAMAH        CLEAR     48  35  60 NW16      29.73R
WAYNE          CLEAR     41  36  82 NW6       29.78R
$$

NEZ050>053-065>068-078-088>093-290200-
SOUTHEAST NEBRASKA

CITY           SKY/WX    TMP DP  RH WIND       PRES   REMARKS
LINCOLN        CLEAR     58  35  42 NW15      29.76R
OMAHA EPPLEY   CLEAR     42  34  73 NW7       29.71R
BEATRICE       CLEAR     49  32  51 W10       29.75R
FALLS CITY     CLEAR     54  34  46 W10       29.70R
NEBRASKA CITY  CLEAR     51  30  45 W10       29.71R
PLATTSMOUTH    CLEAR     49  32  52 W7        29.71R
$$

NEZ044-045-051>053-067-290200-
OMAHA AREA

CITY           SKY/WX    TMP DP  RH WIND       PRES   REMARKS
OMAHA EPPLEY   CLEAR     42  34  73 NW7       29.71R
BLAIR          CLEAR     48  34  57 NW6       29.71R
FREMONT        CLEAR     47  36  64 NW10      29.75R
MILLARD        CLEAR     44  35  69 CALM      29.71R
OFFUTT AFB     CLEAR     46  34  62 NW5       29.70R
PLATTSMOUTH    CLEAR     49  32  52 W7        29.71R
WAHOO          FAIR      44  31  60 NW10      29.74R
$$


USA.gov is the U.S. government's official web portal to all federal, state and local government web resources and services.